Location: Ravencliff
(37.6982°N, 81.4812°W)
Time: 19:53:48
(UTC+00:00)

ACS3 Solar Sail - Pass Details

Date: 27 April 2026
Orbit: 894 x 947 km, 97.2° (Epoch: 12 May)

Event Time Altitude Azimuth Distance (km) Brightness Sun altitude
Rises 07:11:41 0° 2° (N) 3,565 5.6 -32.5°
Reaches altitude 10° 07:14:14 10° 355° (N) 2,627 4.6 -32.3°
Enters shadow 07:18:20 35° 318° (NW) 1,463 2.7 -31.8°
